Погода в Тебекмахах

Россия / Республика Дагестан     42°20′24″N   47°12′28″E
темп.,
°C
ветер,
м/с
пор.,
м/с
влажн.,
%
обл.,
%
осадки,
мм/ч
давл.,
гПа
погр.,
м
24 января, пн
пн2400:00−5ююз43630 0.0 101324
03:00−4ююз43610 0.0 101325
06:00−5ююз43620 0.0 101421
09:00−2ююз326311 0.0 101334
12:00+3з22652 0.0 1010194
15:00+2зсз11734 0.0 101124
18:00−4ююз32753 0.0 101721
21:00−4ююз43670 0.0 101932
25 января, вт
вт2500:00−5ююз43650 0.0 102034
03:00−6ююз33630 0.0 102128
06:00−7ююз33630 0.0 102226
09:00−4ююз33590 0.0 102062
12:00+1юз310390 0.0 10162004
15:000з15471 0.0 10181191
18:00−6ю118320 0.0 102439
21:00−7ю117612 0.0 102634
26 января, ср
ср2600:00−7ю22640 0.0 102424
03:00−8ю22660 0.0 102219
06:00−9ююв12731 0.0 102217
09:00−6ююв12611 0.0 101978
12:00−3всв21571 0.0 1016321
15:00−2всв11642 0.0 1014297
18:00−6вюв118921 0.0 101724
21:00−7вюв118998 0.0 101749
27 января, чт
чт2700:00−7в1189100 0.0 101636
03:00−8ссв009695 0.0 101612
06:00−8сз019699 0.1 1017107
09:00−7в0185100 0.1 1016302
12:00−5с117596 0.1 1014563
15:00−5с2277100 0.1 1013471
18:00−6ссз119199 0.2 1015184
21:00−7сз2295100 0.3 1015174
28 января, пт
пт2800:00−7зсз229399 0.1 1016173
03:00−7з1293100 0.1 1018125
06:00−8зюз119199 0.0 101918
09:00−7св118588 0.1 1020231
12:00−5ссв2283100 0.2 1020523
15:00−6св2289100 0.8 1020451
18:00−7всв1293100 0.8 1023289
21:00−9ю23856 1.0 102570